TimeCDT,TemperatureF,Dew PointF,Humidity,Sea Level PressureIn,VisibilityMPH,Wind Direction,Wind SpeedMPH,Gust SpeedMPH,PrecipitationIn,Events,Conditions,WindDirDegrees,DateUTC
12:53 AM,66.0,60.1,81,30.05,10.0,SE,3.5,-,N/A,,Clear,140,2013-09-04 05:53:00
1:53 AM,64.9,59.0,81,30.06,10.0,Calm,Calm,-,N/A,,Clear,0,2013-09-04 06:53:00
2:53 AM,64.0,57.9,80,30.06,10.0,Calm,Calm,-,N/A,,Clear,0,2013-09-04 07:53:00
3:53 AM,64.0,57.0,78,30.06,10.0,Calm,Calm,-,N/A,,Clear,0,2013-09-04 08:53:00
4:53 AM,62.1,57.0,84,30.07,10.0,Calm,Calm,-,N/A,,Clear,0,2013-09-04 09:53:00
5:53 AM,63.0,55.0,75,30.08,10.0,Calm,Calm,-,N/A,,Clear,0,2013-09-04 10:53:00
6:53 AM,63.0,55.0,75,30.10,10.0,Calm,Calm,-,N/A,,Clear,0,2013-09-04 11:53:00
7:53 AM,64.9,57.0,75,30.12,10.0,Calm,Calm,-,N/A,,Clear,0,2013-09-04 12:53:00
8:53 AM,70.0,59.0,68,30.13,10.0,South,3.5,-,N/A,,Clear,190,2013-09-04 13:53:00
9:53 AM,75.0,59.0,57,30.14,10.0,SW,5.8,-,N/A,,Clear,220,2013-09-04 14:53:00
10:53 AM,78.1,60.1,54,30.16,10.0,South,3.5,-,N/A,,Clear,170,2013-09-04 15:53:00
11:53 AM,81.0,57.0,44,30.15,10.0,SE,5.8,-,N/A,,Clear,140,2013-09-04 16:53:00
12:53 PM,82.0,55.9,41,30.14,10.0,Calm,Calm,-,N/A,,Clear,0,2013-09-04 17:53:00
1:53 PM,84.9,55.9,37,30.12,10.0,Calm,Calm,-,N/A,,Clear,0,2013-09-04 18:53:00
2:53 PM,84.0,57.9,41,30.10,10.0,South,6.9,-,N/A,,Clear,190,2013-09-04 19:53:00
3:53 PM,82.0,59.0,45,30.09,10.0,South,8.1,-,N/A,,Clear,170,2013-09-04 20:53:00
4:53 PM,82.0,55.9,41,30.08,10.0,South,6.9,-,N/A,,Clear,170,2013-09-04 21:53:00
5:53 PM,79.0,62.1,56,30.08,10.0,South,4.6,-,N/A,,Clear,170,2013-09-04 22:53:00
6:53 PM,79.0,60.1,52,30.08,10.0,Calm,Calm,-,N/A,,Clear,0,2013-09-04 23:53:00
7:53 PM,77.0,57.9,52,30.08,10.0,East,3.5,-,N/A,,Clear,100,2013-09-05 00:53:00
8:53 PM,73.9,60.1,62,30.11,10.0,ENE,5.8,-,N/A,,Clear,70,2013-09-05 01:53:00
9:53 PM,73.0,60.1,64,30.12,10.0,Calm,Calm,-,N/A,,Clear,0,2013-09-05 02:53:00
10:53 PM,69.1,62.1,78,30.12,10.0,SE,4.6,-,N/A,,Clear,130,2013-09-05 03:53:00
11:53 PM,69.1,59.0,70,30.12,10.0,Calm,Calm,-,N/A,,Clear,0,2013-09-05 04:53:00